User: anonymous   Login
Location: Buttermere
(51.3333°N, 1.5167°W)
Time: 23:00:37
(UTC+00:00)
Language:

COSMOS 2406 - Orbit

View from above orbital plane
View from above orbital plane
View from above satellite
View from above satellite

Ground track
Ground track

The orbit data is extracted from the following two-line orbital elements,

1 28352U 04021A   20328.53218854 -.00000100 +00000-0 -29012-4 0  9999
2 28352 071.0021 023.3592 0014447 000.6018 359.5118 14.11670573847963
Epoch (UTC): 23 November 2020 12:46:21
Eccentricity: 0.0014447
inclination: 71.0021°
perigee height: 843 km
apogee height: 864 km
right ascension of ascending node: 23.3592°
argument of perigee: 0.6018°
revolutions per day: 14.11670573
mean anomaly at epoch: 359.5118°
orbit number at epoch: 84796

The dashed part of the orbit path shows where the satellite is in the earth's shadow,  

DLR